Volver al catálogo

CZ-6A DEB

ActivoSSO
NORAD 55006·DEBRIS·🇨🇳 China

Lanzado Nov 11, 2022 desde Taiyuan Satellite Launch Center

Loading…

Próximos Pases (próximas 24 horas)

TLE

ActualizadoSource: Space-Track

Época: Sep 13, 2026, 22:22 UTC

1 55006U 22151UW  26256.93213611  .00000960  00000-0  50580-3 0  9990
2 55006  98.8253 259.9681 0043464  75.4270 285.1719 14.15848112196687

Sigue CZ-6A DEB en tiempo real con AllMySat

Download on the App Store